{"data":{"norad_id":63297,"intl_designator":"2025-055G","name":"2025-055G","alt_names":[],"object_type":"PAYLOAD","status":"ACTIVE","operator":null,"country":"PRC","launch_date":"2025-03-17","launch_site_code":"JSC","launch_vehicle":null,"mission":null,"orbit_class":"UNKNOWN","rcs_meters":null,"size_class":null,"mass_kg":null,"dimensions":null,"purposes":[],"wikipedia_slug":null,"has_3d_model":false,"image_url":null,"decayed_at":null,"tle_current":{"epoch":"2026-09-22T23:16:37.790112Z","epoch_age_seconds":95475,"freshness":"FRESH","line1":"1 63297U 25055G   26265.96988183  .00014154  00000+0  51642-3 0  9992","line2":"2 63297  97.6594  51.5495 0007953 167.5805 192.5632 15.28234508 84158","mean_motion":15.28234508,"eccentricity":0.0007953,"inclination_deg":97.6594,"raan_deg":51.5495,"arg_perigee_deg":167.5805,"mean_anomaly_deg":192.5632,"bstar":0.00051642,"rev_number":8415,"period_min":94.226376414215,"perigee_km":475.63481991877,"apogee_km":486.54510632631,"semimajor_km":6859.2269631225,"source":"CELESTRAK","updated_at":"2026-09-23T09:00:21.958035Z"}}}